INTELSAT 33E DEB, 61990

Orbit data source: Space-Track

INTELSAT 33E DEB, 61990 is space debris in GEO originally from a launch on Wed, 24 Aug 2016 UTC launched from the French Guiana (FRGUI). Debris objects in space refer to the collection of defunct objects orbiting the Earth. Examples of debris include non-operational satellites, rocket bodies, and fragments generated from explosions, collisions, or faulty payload assembly.

Loading next visibility...
Identifier
61990, 2016-053G
Orbit
GEO
Country
Flag of UnknownUnknown / ITSO
Related business
Manufacturer
Boeing/ES
Mission
Spacecraft
Bus & Motor
Unknown
Mass
Unknown
Launch date (UTC)
2016-08-24 (9 years ago)
Launch vehicle
Unknown
Launch site
French Guiana (FRGUI)
Object type
Payload
Rocket body
Debris
Shape & HBR
Unknown
Radar Cross Section
RCS unknown

Expand to show TLE details & history
Last TLE update: 17 hours ago

TLE from 17 hours ago
0 INTELSAT 33E DEB
1 61990U 16053G   25258.19437524 -.00000336  00000-0  00000-0 0  9990
2 61990   0.7742  71.5715 0104326 341.0825 308.2908  1.01384490  3364
Epoch: 2025-09-15T04:39Z
TLE epoch observation values (Epoch: 2025-09-15T04:39:54.02Z)
Latitude
-0.74164°
Longitude
-64.37616°
Altitude
35,208.962 km
Speed
3.106 km/s
True Right ascension
00h 00m 00s
True Declination
0° 44' 27"
Sunlit
Object was in full shadow at epoch
Visualization orbit readout
Latitude
Unknown
Longitude
Unknown
Altitude
Unknown
Speed
Unknown
Apparent Right ascension
Unknown
Apparent Declination
Unknown
Sunlit
N/A
Visualization observer readout
Local Sidereal Time
14:11:16
Azimuth
Unknown
Elevation
Unknown
Doppler factor
Unknown
Orbital elements
Apogee altitude
35,915.272 km
Perigee altitude
35,041.923 km
Semi-major axis
41,856.735 km
Eccentricity
0.01043
Inclination
0.7742°
RAAN
71.5715°
Arg. of periapsis
341.0825°
True anomaly
307.34489°
Mean anomaly
308.2908°
Eccentric anomaly
307.81861°
Mean motion
0.25345 °/min
Orbital period
1,420.39 mins
BSTAR
0
Loading maneuver chart data...
Computing Atmospheric mass density...
Loading historical data...
Loading historical data...
Loading historical data...
Loading historical data...
Loading historical data...
Loading historical data...
Loading historical data...

Documentation

Showing up to 5 results
|